Terminal Aerodrome Forecast
Issued by NWS Sioux Falls, SD

Home | Current Version | Previous Version | Graphics & Text | Print | Product List | Glossary On
Versions: 1 2 3 4 5 6 7 8 9 10 11 12 13 14 15 16 17
000
FTUS43 KFSD 220500
TAFHON
TAF
KHON 220520Z 2206/2306 34013KT P6SM SCT200
     FM221400 35014KT P6SM FEW020
     FM221800 01013G24KT P6SM SCT045
     FM230200 05004KT P6SM SCT250=

USA.gov is the U.S. government's official web portal to all federal, state and local government web resources and services.